Year,Month,Day,Hour,Minute,Value (Times are PST for windspeed in km/hr)
2011,07,07,00,00,0.00
2011,07,07,00,01,0.00
2011,07,07,00,02,0.00
2011,07,07,00,03,0.00
2011,07,07,00,04,0.00
2011,07,07,00,05,0.00
2011,07,07,00,06,0.00
2011,07,07,00,07,0.00
2011,07,07,00,08,0.00
2011,07,07,00,09,0.00
2011,07,07,00,10,0.00
2011,07,07,00,11,0.00
2011,07,07,00,12,0.00
2011,07,07,00,13,0.00
2011,07,07,00,14,0.00
2011,07,07,00,15,0.10
2011,07,07,00,16,0.00
2011,07,07,00,17,0.00
2011,07,07,00,18,0.00
2011,07,07,00,19,0.00
2011,07,07,00,20,0.00
2011,07,07,00,21,0.00
2011,07,07,00,22,0.00
2011,07,07,00,23,0.00
2011,07,07,00,24,0.00
2011,07,07,00,25,0.00
2011,07,07,00,26,0.00
2011,07,07,00,27,0.00
2011,07,07,00,28,0.00
2011,07,07,00,29,0.00
2011,07,07,00,30,0.00
2011,07,07,00,31,0.10
2011,07,07,00,32,0.00
2011,07,07,00,33,0.00
2011,07,07,00,34,0.00
2011,07,07,00,35,0.00
2011,07,07,00,36,0.00
2011,07,07,00,37,0.00
2011,07,07,00,38,0.00
2011,07,07,00,39,0.00
2011,07,07,00,40,0.00
2011,07,07,00,41,0.00
2011,07,07,00,42,0.00
2011,07,07,00,43,0.00
2011,07,07,00,44,0.00
2011,07,07,00,45,0.00
2011,07,07,00,46,0.00
2011,07,07,00,47,0.10
2011,07,07,00,48,0.10
2011,07,07,00,49,0.00
2011,07,07,00,50,0.00
2011,07,07,00,51,0.40
2011,07,07,00,52,0.10
2011,07,07,00,53,0.00
2011,07,07,00,54,0.00
2011,07,07,00,55,0.30
2011,07,07,00,56,0.10
2011,07,07,00,57,0.20
2011,07,07,00,58,0.40
2011,07,07,00,59,0.30
2011,07,07,01,00,0.50
2011,07,07,01,01,0.50
2011,07,07,01,02,0.10
2011,07,07,01,03,0.10
2011,07,07,01,04,0.10
2011,07,07,01,05,0.80
2011,07,07,01,06,0.10
2011,07,07,01,07,0.70
2011,07,07,01,08,0.70
2011,07,07,01,09,0.10
2011,07,07,01,10,0.30
2011,07,07,01,11,0.70
2011,07,07,01,12,1.80
2011,07,07,01,13,1.10
2011,07,07,01,14,2.30
2011,07,07,01,15,1.70
2011,07,07,01,16,1.20
2011,07,07,01,17,5.40
2011,07,07,01,18,2.40
2011,07,07,01,19,3.00
2011,07,07,01,20,4.40
2011,07,07,01,21,2.00
2011,07,07,01,22,2.50
2011,07,07,01,23,3.00
2011,07,07,01,24,5.40
2011,07,07,01,25,0.90
2011,07,07,01,26,0.00
2011,07,07,01,27,0.10
2011,07,07,01,28,3.00
2011,07,07,01,29,2.10
2011,07,07,01,30,2.10
2011,07,07,01,31,1.70
2011,07,07,01,32,6.10
2011,07,07,01,33,2.10
2011,07,07,01,34,3.40
2011,07,07,01,35,4.10
2011,07,07,01,36,3.40
2011,07,07,01,37,1.50
2011,07,07,01,38,2.20
2011,07,07,01,39,3.70
2011,07,07,01,40,3.00
2011,07,07,01,41,0.10
2011,07,07,01,42,0.40
2011,07,07,01,43,0.30
2011,07,07,01,44,1.00
2011,07,07,01,45,4.20
2011,07,07,01,46,3.40
2011,07,07,01,47,0.10
2011,07,07,01,48,1.60
2011,07,07,01,49,1.00
2011,07,07,01,50,2.70
2011,07,07,01,51,3.00
2011,07,07,01,52,0.90
2011,07,07,01,53,0.80
2011,07,07,01,54,0.20
2011,07,07,01,55,0.80
2011,07,07,01,56,0.40
2011,07,07,01,57,0.00
2011,07,07,01,58,0.60
2011,07,07,01,59,0.00
2011,07,07,02,00,0.00
2011,07,07,02,01,0.70
2011,07,07,02,02,0.00
2011,07,07,02,03,0.40
2011,07,07,02,04,0.50
2011,07,07,02,05,2.80
2011,07,07,02,06,1.10
2011,07,07,02,07,0.40
2011,07,07,02,08,0.30
2011,07,07,02,09,0.10
2011,07,07,02,10,1.50
2011,07,07,02,11,1.90
2011,07,07,02,12,1.40
2011,07,07,02,13,0.60
2011,07,07,02,14,1.20
2011,07,07,02,15,2.10
2011,07,07,02,16,2.70
2011,07,07,02,17,0.40
2011,07,07,02,18,4.10
2011,07,07,02,19,0.90
2011,07,07,02,20,0.00
2011,07,07,02,21,1.70
2011,07,07,02,22,0.60
2011,07,07,02,23,0.10
2011,07,07,02,24,2.50
2011,07,07,02,25,0.10
2011,07,07,02,26,0.00
2011,07,07,02,27,0.50
2011,07,07,02,28,2.70
2011,07,07,02,29,0.10
2011,07,07,02,30,2.90
2011,07,07,02,31,0.10
2011,07,07,02,32,0.00
2011,07,07,02,33,2.10
2011,07,07,02,34,1.10
2011,07,07,02,35,1.80
2011,07,07,02,36,1.60
2011,07,07,02,37,2.90
2011,07,07,02,38,3.60
2011,07,07,02,39,0.10
2011,07,07,02,40,1.80
2011,07,07,02,41,4.20
2011,07,07,02,42,1.80
2011,07,07,02,43,3.10
2011,07,07,02,44,2.80
2011,07,07,02,45,2.40
2011,07,07,02,46,0.10
2011,07,07,02,47,0.10
2011,07,07,02,48,0.40
2011,07,07,02,49,0.10
2011,07,07,02,50,0.00
2011,07,07,02,51,0.10
2011,07,07,02,52,1.60
2011,07,07,02,53,1.70
2011,07,07,02,54,1.40
2011,07,07,02,55,0.50
2011,07,07,02,56,1.50
2011,07,07,02,57,1.60
2011,07,07,02,58,3.30
2011,07,07,02,59,0.70
2011,07,07,03,00,1.40
2011,07,07,03,01,0.00
2011,07,07,03,02,0.50
2011,07,07,03,03,0.10
2011,07,07,03,04,1.10
2011,07,07,03,05,2.60
2011,07,07,03,06,0.90
2011,07,07,03,07,0.70
2011,07,07,03,08,0.10
2011,07,07,03,09,0.00
2011,07,07,03,10,1.90
2011,07,07,03,11,0.10
2011,07,07,03,12,0.10
2011,07,07,03,13,0.50
2011,07,07,03,14,2.10
2011,07,07,03,15,4.60
2011,07,07,03,16,2.10
2011,07,07,03,17,1.20
2011,07,07,03,18,2.30
2011,07,07,03,19,2.00
2011,07,07,03,20,2.70
2011,07,07,03,21,1.60
2011,07,07,03,22,0.30
2011,07,07,03,23,0.70
2011,07,07,03,24,0.10
2011,07,07,03,25,2.50
2011,07,07,03,26,1.90
2011,07,07,03,27,0.20
2011,07,07,03,28,0.20
2011,07,07,03,29,1.80
2011,07,07,03,30,3.10
2011,07,07,03,31,0.60
2011,07,07,03,32,1.70
2011,07,07,03,33,1.20
2011,07,07,03,34,1.50
2011,07,07,03,35,3.90
2011,07,07,03,36,2.80
2011,07,07,03,37,3.60
2011,07,07,03,38,0.70
2011,07,07,03,39,2.10
2011,07,07,03,40,3.50
2011,07,07,03,41,2.50
2011,07,07,03,42,4.80
2011,07,07,03,43,4.00
2011,07,07,03,44,5.00
2011,07,07,03,45,4.80
2011,07,07,03,46,2.30
2011,07,07,03,47,5.00
2011,07,07,03,48,3.40
2011,07,07,03,49,3.50
2011,07,07,03,50,3.10
2011,07,07,03,51,3.10
2011,07,07,03,52,2.90
2011,07,07,03,53,5.30
2011,07,07,03,54,4.30
2011,07,07,03,55,5.30
2011,07,07,03,56,2.40
2011,07,07,03,57,3.20
2011,07,07,03,58,0.50
2011,07,07,03,59,0.00
2011,07,07,04,00,0.00
2011,07,07,04,01,0.10
2011,07,07,04,02,0.00
2011,07,07,04,03,0.30
2011,07,07,04,04,0.70
2011,07,07,04,05,0.00
2011,07,07,04,06,0.00
2011,07,07,04,07,0.90
2011,07,07,04,08,5.00
2011,07,07,04,09,4.20
2011,07,07,04,10,1.60
2011,07,07,04,11,0.00
2011,07,07,04,12,0.30
2011,07,07,04,13,0.00
2011,07,07,04,14,0.00
2011,07,07,04,15,0.00
2011,07,07,04,16,0.00
2011,07,07,04,17,0.00
2011,07,07,04,18,0.00
2011,07,07,04,19,0.00
2011,07,07,04,20,0.10
2011,07,07,04,21,0.60
2011,07,07,04,22,1.20
2011,07,07,04,23,0.00
2011,07,07,04,24,0.30
2011,07,07,04,25,0.10
2011,07,07,04,26,0.40
2011,07,07,04,27,0.10
2011,07,07,04,28,0.00
2011,07,07,04,29,0.00
2011,07,07,04,30,0.00
2011,07,07,04,31,0.00
2011,07,07,04,32,0.20
2011,07,07,04,33,0.10
2011,07,07,04,34,0.10
2011,07,07,04,35,0.10
2011,07,07,04,36,0.10
2011,07,07,04,37,0.00
2011,07,07,04,38,0.00
2011,07,07,04,39,0.00
2011,07,07,04,40,0.00
2011,07,07,04,41,0.00
2011,07,07,04,42,0.10
2011,07,07,04,43,0.10
2011,07,07,04,44,0.00
2011,07,07,04,45,0.00
2011,07,07,04,46,0.00
2011,07,07,04,47,0.20
2011,07,07,04,48,0.90
2011,07,07,04,49,0.10
2011,07,07,04,50,0.00
2011,07,07,04,51,0.00
2011,07,07,04,52,0.00
2011,07,07,04,53,0.10
2011,07,07,04,54,0.10
2011,07,07,04,55,0.00
2011,07,07,04,56,0.00
2011,07,07,04,57,0.00
2011,07,07,04,58,0.00
2011,07,07,04,59,0.00
2011,07,07,05,00,0.00
2011,07,07,05,01,0.00
2011,07,07,05,02,0.00
2011,07,07,05,03,0.10
2011,07,07,05,04,2.10
2011,07,07,05,05,0.10
2011,07,07,05,06,0.00
2011,07,07,05,07,0.00
2011,07,07,05,08,0.10
2011,07,07,05,09,0.00
2011,07,07,05,10,0.20
2011,07,07,05,11,0.00
2011,07,07,05,12,0.00
2011,07,07,05,13,0.00
2011,07,07,05,14,0.00
2011,07,07,05,15,0.00
2011,07,07,05,16,0.00
2011,07,07,05,17,0.00
2011,07,07,05,18,0.00
2011,07,07,05,19,0.00
2011,07,07,05,20,0.00
2011,07,07,05,21,0.40
2011,07,07,05,22,0.10
2011,07,07,05,23,0.00
2011,07,07,05,24,0.00
2011,07,07,05,25,0.00
2011,07,07,05,26,0.00
2011,07,07,05,27,0.00
2011,07,07,05,28,0.00
2011,07,07,05,29,0.00
2011,07,07,05,30,0.00
2011,07,07,05,31,0.00
2011,07,07,05,32,0.00
2011,07,07,05,33,0.00
2011,07,07,05,34,0.00
2011,07,07,05,35,0.00
2011,07,07,05,36,0.00
2011,07,07,05,37,0.00
2011,07,07,05,38,0.00
2011,07,07,05,39,0.00
2011,07,07,05,40,0.40
2011,07,07,05,41,0.20
2011,07,07,05,42,0.60
2011,07,07,05,43,0.00
2011,07,07,05,44,0.50
2011,07,07,05,45,3.00
2011,07,07,05,46,4.50
2011,07,07,05,47,3.10
2011,07,07,05,48,3.80
2011,07,07,05,49,5.00
2011,07,07,05,50,4.60
2011,07,07,05,51,5.00
2011,07,07,05,52,4.50
2011,07,07,05,53,3.20
2011,07,07,05,54,3.10
2011,07,07,05,55,4.80
2011,07,07,05,56,4.80
2011,07,07,05,57,2.90
2011,07,07,05,58,8.10
2011,07,07,05,59,6.70
2011,07,07,06,00,1.80
2011,07,07,06,01,4.40
2011,07,07,06,02,5.50
2011,07,07,06,03,4.10
2011,07,07,06,04,8.00
2011,07,07,06,05,4.70
2011,07,07,06,06,5.70
2011,07,07,06,07,5.00
2011,07,07,06,08,3.30
2011,07,07,06,09,6.70
2011,07,07,06,10,5.90
2011,07,07,06,11,4.20
2011,07,07,06,12,5.60
2011,07,07,06,13,3.80
2011,07,07,06,14,4.30
2011,07,07,06,15,2.90
2011,07,07,06,16,1.30
2011,07,07,06,17,2.30
2011,07,07,06,18,4.80
2011,07,07,06,19,4.10
2011,07,07,06,20,2.50
2011,07,07,06,21,0.70
2011,07,07,06,22,1.20
2011,07,07,06,23,1.10
2011,07,07,06,24,1.70
2011,07,07,06,25,0.70
2011,07,07,06,26,4.20
2011,07,07,06,27,1.00
2011,07,07,06,28,0.00
2011,07,07,06,29,0.20
2011,07,07,06,30,0.40
2011,07,07,06,31,0.50
2011,07,07,06,32,0.10
2011,07,07,06,33,0.00
2011,07,07,06,34,0.00
2011,07,07,06,35,0.10
2011,07,07,06,36,1.30
2011,07,07,06,37,1.40
2011,07,07,06,38,1.10
2011,07,07,06,39,0.00
2011,07,07,06,40,0.00
2011,07,07,06,41,0.00
2011,07,07,06,42,0.00
2011,07,07,06,43,0.10
2011,07,07,06,44,0.00
2011,07,07,06,45,0.10
2011,07,07,06,46,0.80
2011,07,07,06,47,1.70
2011,07,07,06,48,3.10
2011,07,07,06,49,1.40
2011,07,07,06,50,3.80
2011,07,07,06,51,3.60
2011,07,07,06,52,3.90
2011,07,07,06,53,2.60
2011,07,07,06,54,5.40
2011,07,07,06,55,5.30
2011,07,07,06,56,3.80
2011,07,07,06,57,3.90
2011,07,07,06,58,6.90
2011,07,07,06,59,4.50
2011,07,07,07,00,5.00
2011,07,07,07,01,3.70
2011,07,07,07,02,0.10
2011,07,07,07,03,0.10
2011,07,07,07,04,0.70
2011,07,07,07,05,4.10
2011,07,07,07,06,4.40
2011,07,07,07,07,5.30
2011,07,07,07,08,6.70
2011,07,07,07,09,2.50
2011,07,07,07,10,6.00
2011,07,07,07,11,5.50
2011,07,07,07,12,0.90
2011,07,07,07,13,3.40
2011,07,07,07,14,2.80
2011,07,07,07,15,7.30
2011,07,07,07,16,5.90
2011,07,07,07,17,0.40
2011,07,07,07,18,1.80
2011,07,07,07,19,0.80
2011,07,07,07,20,1.50
2011,07,07,07,21,2.80
2011,07,07,07,22,6.00
2011,07,07,07,23,5.30
2011,07,07,07,24,4.10
2011,07,07,07,25,7.60
2011,07,07,07,26,3.60
2011,07,07,07,27,3.30
2011,07,07,07,28,2.60
2011,07,07,07,29,4.90
2011,07,07,07,30,1.00
2011,07,07,07,31,1.20
2011,07,07,07,32,0.20
2011,07,07,07,33,0.50
2011,07,07,07,34,4.30
2011,07,07,07,35,4.60
2011,07,07,07,36,0.10
2011,07,07,07,37,1.40
2011,07,07,07,38,0.00
2011,07,07,07,39,1.00
2011,07,07,07,40,3.10
2011,07,07,07,41,0.20
2011,07,07,07,42,0.00
2011,07,07,07,43,0.10
2011,07,07,07,44,0.30
2011,07,07,07,45,2.90
2011,07,07,07,46,2.80
2011,07,07,07,47,0.30
2011,07,07,07,48,0.10
2011,07,07,07,49,3.10
2011,07,07,07,50,3.70
2011,07,07,07,51,0.80
2011,07,07,07,52,4.60
2011,07,07,07,53,4.00
2011,07,07,07,54,1.10
2011,07,07,07,55,3.60
2011,07,07,07,56,0.40
2011,07,07,07,57,0.20
2011,07,07,07,58,1.10
2011,07,07,07,59,0.30
2011,07,07,08,00,0.10
2011,07,07,08,01,0.80
2011,07,07,08,02,1.30
2011,07,07,08,03,0.70
2011,07,07,08,04,0.10
2011,07,07,08,05,1.40
2011,07,07,08,06,2.40
2011,07,07,08,07,1.20
2011,07,07,08,08,0.10
2011,07,07,08,09,4.00
2011,07,07,08,10,4.10
2011,07,07,08,11,4.50
2011,07,07,08,12,1.90
2011,07,07,08,13,0.60
2011,07,07,08,14,0.70
2011,07,07,08,15,3.10
2011,07,07,08,16,2.10
2011,07,07,08,17,3.10
2011,07,07,08,18,1.80
2011,07,07,08,19,0.90
2011,07,07,08,20,0.20
2011,07,07,08,21,1.30
2011,07,07,08,22,0.50
2011,07,07,08,23,2.40
2011,07,07,08,24,1.90
2011,07,07,08,25,2.10
2011,07,07,08,26,4.90
2011,07,07,08,27,1.10
2011,07,07,08,28,3.50
2011,07,07,08,29,2.70
2011,07,07,08,30,0.80
2011,07,07,08,31,2.50
2011,07,07,08,32,0.50
2011,07,07,08,33,0.70
2011,07,07,08,34,1.90
2011,07,07,08,35,3.10
2011,07,07,08,36,2.00
2011,07,07,08,37,0.40
2011,07,07,08,38,2.60
2011,07,07,08,39,2.10
2011,07,07,08,40,3.30
2011,07,07,08,41,0.00
2011,07,07,08,42,1.20
2011,07,07,08,43,3.30
2011,07,07,08,44,5.70
2011,07,07,08,45,2.60
2011,07,07,08,46,0.70
2011,07,07,08,47,3.30
2011,07,07,08,48,5.10
2011,07,07,08,49,2.00
2011,07,07,08,50,0.10
2011,07,07,08,51,2.60
2011,07,07,08,52,4.20
2011,07,07,08,53,5.50
2011,07,07,08,54,2.80
2011,07,07,08,55,0.40
2011,07,07,08,56,3.40
2011,07,07,08,57,1.80
2011,07,07,08,58,3.50
2011,07,07,08,59,2.00
2011,07,07,09,00,2.10
2011,07,07,09,01,0.90
2011,07,07,09,02,0.00
2011,07,07,09,03,1.50
2011,07,07,09,04,0.60
2011,07,07,09,05,0.50
2011,07,07,09,06,1.30
2011,07,07,09,07,2.40
2011,07,07,09,08,1.10
2011,07,07,09,09,2.30
2011,07,07,09,10,0.70
2011,07,07,09,11,0.30
2011,07,07,09,12,0.90
2011,07,07,09,13,2.10
2011,07,07,09,14,0.00
2011,07,07,09,15,0.00
2011,07,07,09,16,1.30
2011,07,07,09,17,0.00
2011,07,07,09,18,0.00
2011,07,07,09,19,1.50
2011,07,07,09,20,2.60
2011,07,07,09,21,2.00
2011,07,07,09,22,2.60
2011,07,07,09,23,1.10
2011,07,07,09,24,0.70
2011,07,07,09,25,1.50
2011,07,07,09,26,2.20
2011,07,07,09,27,0.70
2011,07,07,09,28,0.40
2011,07,07,09,29,3.70
2011,07,07,09,30,1.50
2011,07,07,09,31,3.10
2011,07,07,09,32,2.00
2011,07,07,09,33,0.40
2011,07,07,09,34,0.10
2011,07,07,09,35,1.00
2011,07,07,09,36,4.30
2011,07,07,09,37,2.80
2011,07,07,09,38,5.50
2011,07,07,09,39,7.10
2011,07,07,09,40,7.90
2011,07,07,09,41,0.10
2011,07,07,09,42,0.20
2011,07,07,09,43,1.20
2011,07,07,09,44,1.60
2011,07,07,09,45,4.30
2011,07,07,09,46,5.30
2011,07,07,09,47,4.10
2011,07,07,09,48,4.90
2011,07,07,09,49,0.10
2011,07,07,09,50,2.90
2011,07,07,09,51,3.30
2011,07,07,09,52,8.10
2011,07,07,09,53,8.80
2011,07,07,09,54,6.40
2011,07,07,09,55,1.00
2011,07,07,09,56,4.10
2011,07,07,09,57,6.00
2011,07,07,09,58,5.40
2011,07,07,09,59,6.40
2011,07,07,10,00,6.10
2011,07,07,10,01,6.00
2011,07,07,10,02,6.40
2011,07,07,10,03,6.00
2011,07,07,10,04,5.60
2011,07,07,10,05,8.70
2011,07,07,10,06,7.20
2011,07,07,10,07,7.10
2011,07,07,10,08,9.30
2011,07,07,10,09,2.70
2011,07,07,10,10,7.90
2011,07,07,10,11,6.40
2011,07,07,10,12,5.60
2011,07,07,10,13,1.50
2011,07,07,10,14,1.20
2011,07,07,10,15,4.80
2011,07,07,10,16,6.00
2011,07,07,10,17,1.60
2011,07,07,10,18,5.30
2011,07,07,10,19,3.80
2011,07,07,10,20,2.30
2011,07,07,10,21,1.80
2011,07,07,10,22,4.50
2011,07,07,10,23,6.50
2011,07,07,10,24,0.70
2011,07,07,10,25,0.40
2011,07,07,10,26,4.10
2011,07,07,10,27,3.20
2011,07,07,10,28,1.40
2011,07,07,10,29,6.10
2011,07,07,10,30,2.00
2011,07,07,10,31,5.70
2011,07,07,10,32,3.80
2011,07,07,10,33,4.40
2011,07,07,10,34,6.10
2011,07,07,10,35,3.90
2011,07,07,10,36,2.10
2011,07,07,10,37,4.50
2011,07,07,10,38,1.20
2011,07,07,10,39,0.10
2011,07,07,10,40,0.00
2011,07,07,10,41,0.10
2011,07,07,10,42,0.10
2011,07,07,10,43,1.30
2011,07,07,10,44,4.70
2011,07,07,10,45,0.40
2011,07,07,10,46,0.10
2011,07,07,10,47,2.20
2011,07,07,10,48,0.00
2011,07,07,10,49,0.40
2011,07,07,10,50,0.00
2011,07,07,10,51,0.10
2011,07,07,10,52,0.10
2011,07,07,10,53,0.10
2011,07,07,10,54,2.80
2011,07,07,10,55,2.90
2011,07,07,10,56,1.50
2011,07,07,10,57,0.20
2011,07,07,10,58,0.30
2011,07,07,10,59,0.60
2011,07,07,11,00,0.80
2011,07,07,11,01,0.10
2011,07,07,11,02,0.10
2011,07,07,11,03,0.70
2011,07,07,11,04,3.80
2011,07,07,11,05,3.40
2011,07,07,11,06,3.20
2011,07,07,11,07,4.70
2011,07,07,11,08,3.90
2011,07,07,11,09,2.60
2011,07,07,11,10,7.40
2011,07,07,11,11,7.10
2011,07,07,11,12,7.60
2011,07,07,11,13,5.60
2011,07,07,11,14,2.60
2011,07,07,11,15,4.50
2011,07,07,11,16,2.80
2011,07,07,11,17,0.60
2011,07,07,11,18,1.50
2011,07,07,11,19,4.60
2011,07,07,11,20,5.10
2011,07,07,11,21,5.00
2011,07,07,11,22,6.20
2011,07,07,11,23,7.30
2011,07,07,11,24,6.10
2011,07,07,11,25,5.40
2011,07,07,11,26,1.20
2011,07,07,11,27,4.30
2011,07,07,11,28,5.60
2011,07,07,11,29,3.10
2011,07,07,11,30,7.40
2011,07,07,11,31,8.70
2011,07,07,11,32,3.10
2011,07,07,11,33,3.90
2011,07,07,11,34,3.40
2011,07,07,11,35,3.70
2011,07,07,11,36,1.40
2011,07,07,11,37,3.30
2011,07,07,11,38,2.30
2011,07,07,11,39,1.20
2011,07,07,11,40,0.40
2011,07,07,11,41,2.30
2011,07,07,11,42,6.10
2011,07,07,11,43,5.20
2011,07,07,11,44,6.00
2011,07,07,11,45,6.20
2011,07,07,11,46,7.30
2011,07,07,11,47,4.00
2011,07,07,11,48,3.60
2011,07,07,11,49,3.80
2011,07,07,11,50,1.90
2011,07,07,11,51,2.20
2011,07,07,11,52,5.20
2011,07,07,11,53,5.40
2011,07,07,11,54,5.60
2011,07,07,11,55,6.70
2011,07,07,11,56,3.30
2011,07,07,11,57,4.30
2011,07,07,11,58,5.60
2011,07,07,11,59,3.90
2011,07,07,12,00,5.40
2011,07,07,12,01,7.80
2011,07,07,12,02,4.20
2011,07,07,12,03,5.50
2011,07,07,12,04,5.50
2011,07,07,12,05,3.10
2011,07,07,12,06,8.30
2011,07,07,12,07,6.50
2011,07,07,12,08,8.90
2011,07,07,12,09,11.20
2011,07,07,12,10,14.20
2011,07,07,12,11,16.00
2011,07,07,12,12,10.80
2011,07,07,12,13,6.30
2011,07,07,12,14,7.80
2011,07,07,12,15,6.90
2011,07,07,12,16,8.00
2011,07,07,12,17,8.30
2011,07,07,12,18,1.30
2011,07,07,12,19,3.60
2011,07,07,12,20,4.70
2011,07,07,12,21,8.70
2011,07,07,12,22,5.30
2011,07,07,12,23,8.70
2011,07,07,12,24,11.30
2011,07,07,12,25,7.20
2011,07,07,12,26,9.10
2011,07,07,12,27,9.40
2011,07,07,12,28,9.30
2011,07,07,12,29,7.10
2011,07,07,12,30,4.10
2011,07,07,12,31,2.60
2011,07,07,12,32,6.00
2011,07,07,12,33,7.10
2011,07,07,12,34,4.00
2011,07,07,12,35,4.90
2011,07,07,12,36,6.10
2011,07,07,12,37,6.40
2011,07,07,12,38,1.20
2011,07,07,12,39,1.80
2011,07,07,12,40,10.10
2011,07,07,12,41,12.60
2011,07,07,12,42,8.00
2011,07,07,12,43,8.20
2011,07,07,12,44,5.40
2011,07,07,12,45,7.40
2011,07,07,12,46,6.70
2011,07,07,12,47,10.20
2011,07,07,12,48,9.70
2011,07,07,12,49,10.90
2011,07,07,12,50,10.90
2011,07,07,12,51,8.20
2011,07,07,12,52,11.10
2011,07,07,12,53,11.80
2011,07,07,12,54,11.50
2011,07,07,12,55,10.10
2011,07,07,12,56,12.20
2011,07,07,12,57,9.60
2011,07,07,12,58,15.50
2011,07,07,12,59,12.10
2011,07,07,13,00,13.40
2011,07,07,13,01,8.90
2011,07,07,13,02,11.10
2011,07,07,13,03,5.90
2011,07,07,13,04,12.60
2011,07,07,13,05,15.20
2011,07,07,13,06,10.70
2011,07,07,13,07,8.20
2011,07,07,13,08,7.50
2011,07,07,13,09,2.90
2011,07,07,13,10,9.30
2011,07,07,13,11,7.90
2011,07,07,13,12,8.90
2011,07,07,13,13,8.60
2011,07,07,13,14,16.40
2011,07,07,13,15,15.70
2011,07,07,13,16,14.00
2011,07,07,13,17,10.00
2011,07,07,13,18,8.00
2011,07,07,13,19,8.20
2011,07,07,13,20,17.20
2011,07,07,13,21,8.90
2011,07,07,13,22,4.30
2011,07,07,13,23,8.60
2011,07,07,13,24,11.40
2011,07,07,13,25,12.80
2011,07,07,13,26,11.80
2011,07,07,13,27,11.10
2011,07,07,13,28,12.60
2011,07,07,13,29,12.90
2011,07,07,13,30,7.50
2011,07,07,13,31,14.30
2011,07,07,13,32,11.10
2011,07,07,13,33,9.10
2011,07,07,13,34,11.90
2011,07,07,13,35,10.30
2011,07,07,13,36,6.90
2011,07,07,13,37,6.80
2011,07,07,13,38,9.70
2011,07,07,13,39,10.10
2011,07,07,13,40,9.20
2011,07,07,13,41,10.50
2011,07,07,13,42,7.80
2011,07,07,13,43,9.60
2011,07,07,13,44,8.60
2011,07,07,13,45,13.20
2011,07,07,13,46,11.00
2011,07,07,13,47,9.10
2011,07,07,13,48,14.60
2011,07,07,13,49,15.60
2011,07,07,13,50,13.80
2011,07,07,13,51,8.40
2011,07,07,13,52,11.00
2011,07,07,13,53,10.00
2011,07,07,13,54,9.20
2011,07,07,13,55,11.90
2011,07,07,13,56,7.40
2011,07,07,13,57,16.20
2011,07,07,13,58,5.30
2011,07,07,13,59,10.40
2011,07,07,14,00,14.10
2011,07,07,14,01,6.90
2011,07,07,14,02,11.40
2011,07,07,14,03,9.00
2011,07,07,14,04,6.20
2011,07,07,14,05,10.60
2011,07,07,14,06,9.40
2011,07,07,14,07,7.20
2011,07,07,14,08,5.60
2011,07,07,14,09,11.50
2011,07,07,14,10,12.90
2011,07,07,14,11,11.00
2011,07,07,14,12,9.60
2011,07,07,14,13,15.30
2011,07,07,14,14,13.20
2011,07,07,14,15,5.60
2011,07,07,14,16,10.20
2011,07,07,14,17,9.60
2011,07,07,14,18,13.10
2011,07,07,14,19,21.20
2011,07,07,14,20,11.10
2011,07,07,14,21,6.40
2011,07,07,14,22,11.30
2011,07,07,14,23,17.80
2011,07,07,14,24,15.90
2011,07,07,14,25,10.20
2011,07,07,14,26,17.10
2011,07,07,14,27,14.20
2011,07,07,14,28,12.40
2011,07,07,14,29,16.80
2011,07,07,14,30,15.70
2011,07,07,14,31,11.00
2011,07,07,14,32,9.90
2011,07,07,14,33,14.20
2011,07,07,14,34,12.70
2011,07,07,14,35,14.30
2011,07,07,14,36,10.30
2011,07,07,14,37,10.70
2011,07,07,14,38,9.70
2011,07,07,14,39,10.80
2011,07,07,14,40,19.10
2011,07,07,14,41,18.80
2011,07,07,14,42,13.70
2011,07,07,14,43,19.00
2011,07,07,14,44,19.60
2011,07,07,14,45,17.70
2011,07,07,14,46,15.70
2011,07,07,14,47,20.00
2011,07,07,14,48,16.50
2011,07,07,14,49,17.80
2011,07,07,14,50,22.60
2011,07,07,14,51,19.40
2011,07,07,14,52,17.90
2011,07,07,14,53,14.90
2011,07,07,14,54,20.00
2011,07,07,14,55,11.10
2011,07,07,14,56,9.70
2011,07,07,14,57,16.70
2011,07,07,14,58,10.40
2011,07,07,14,59,12.80
2011,07,07,15,00,16.70
2011,07,07,15,01,18.70
2011,07,07,15,02,15.60
2011,07,07,15,03,17.00
2011,07,07,15,04,16.20
2011,07,07,15,05,17.80
2011,07,07,15,06,16.60
2011,07,07,15,07,20.50
2011,07,07,15,08,17.10
2011,07,07,15,09,20.00
2011,07,07,15,10,21.70
2011,07,07,15,11,16.90
2011,07,07,15,12,10.30
2011,07,07,15,13,12.40
2011,07,07,15,14,14.70
2011,07,07,15,15,14.60
2011,07,07,15,16,9.00
2011,07,07,15,17,11.30
2011,07,07,15,18,4.80
2011,07,07,15,19,5.60
2011,07,07,15,20,19.70
2011,07,07,15,21,12.30
2011,07,07,15,22,15.50
2011,07,07,15,23,20.60
2011,07,07,15,24,10.80
2011,07,07,15,25,14.00
2011,07,07,15,26,11.60
2011,07,07,15,27,15.40
2011,07,07,15,28,19.90
2011,07,07,15,29,24.40
2011,07,07,15,30,19.00
2011,07,07,15,31,18.40
2011,07,07,15,32,16.10
2011,07,07,15,33,19.50
2011,07,07,15,34,18.10
2011,07,07,15,35,12.90
2011,07,07,15,36,16.30
2011,07,07,15,37,10.80
2011,07,07,15,38,16.00
2011,07,07,15,39,14.00
2011,07,07,15,40,12.80
2011,07,07,15,41,13.60
2011,07,07,15,42,11.40
2011,07,07,15,43,22.00
2011,07,07,15,44,17.60
2011,07,07,15,45,15.10
2011,07,07,15,46,15.10
2011,07,07,15,47,19.90
2011,07,07,15,48,15.70
2011,07,07,15,49,16.30
2011,07,07,15,50,16.20
2011,07,07,15,51,10.10
2011,07,07,15,52,12.60
2011,07,07,15,53,13.10
2011,07,07,15,54,14.40
2011,07,07,15,55,10.00
2011,07,07,15,56,14.00
2011,07,07,15,57,24.60
2011,07,07,15,58,13.60
2011,07,07,15,59,17.50
2011,07,07,16,00,12.90
2011,07,07,16,01,17.30
2011,07,07,16,02,15.30
2011,07,07,16,03,12.00
2011,07,07,16,04,13.50
2011,07,07,16,05,21.10
2011,07,07,16,06,18.00
2011,07,07,16,07,12.60
2011,07,07,16,08,15.10
2011,07,07,16,09,16.70
2011,07,07,16,10,14.00
2011,07,07,16,11,16.80
2011,07,07,16,12,18.80
2011,07,07,16,13,22.10
2011,07,07,16,14,23.50
2011,07,07,16,15,18.50
2011,07,07,16,16,19.60
2011,07,07,16,17,14.70
2011,07,07,16,18,16.00
2011,07,07,16,19,18.30
2011,07,07,16,20,18.10
2011,07,07,16,21,22.00
2011,07,07,16,22,13.50
2011,07,07,16,23,20.00
2011,07,07,16,24,17.10
2011,07,07,16,25,15.00
2011,07,07,16,26,16.80
2011,07,07,16,27,16.30
2011,07,07,16,28,14.60
2011,07,07,16,29,16.60
2011,07,07,16,30,21.40
2011,07,07,16,31,15.80
2011,07,07,16,32,12.90
2011,07,07,16,33,18.80
2011,07,07,16,34,14.10
2011,07,07,16,35,15.90
2011,07,07,16,36,17.00
2011,07,07,16,37,17.30
2011,07,07,16,38,17.20
2011,07,07,16,39,15.20
2011,07,07,16,40,17.80
2011,07,07,16,41,16.60
2011,07,07,16,42,20.00
2011,07,07,16,43,17.70
2011,07,07,16,44,14.00
2011,07,07,16,45,14.30
2011,07,07,16,46,17.40
2011,07,07,16,47,14.00
2011,07,07,16,48,15.20
2011,07,07,16,49,9.40
2011,07,07,16,50,12.20
2011,07,07,16,51,21.70
2011,07,07,16,52,14.60
2011,07,07,16,53,14.70
2011,07,07,16,54,11.40
2011,07,07,16,55,14.30
2011,07,07,16,56,22.50
2011,07,07,16,57,17.60
2011,07,07,16,58,15.60
2011,07,07,16,59,11.90
2011,07,07,17,00,13.10
2011,07,07,17,01,10.80
2011,07,07,17,02,11.80
2011,07,07,17,03,9.00
2011,07,07,17,04,17.40
2011,07,07,17,05,13.60
2011,07,07,17,06,15.80
2011,07,07,17,07,15.40
2011,07,07,17,08,14.80
2011,07,07,17,09,19.50
2011,07,07,17,10,19.90
2011,07,07,17,11,24.50
2011,07,07,17,12,14.90
2011,07,07,17,13,13.20
2011,07,07,17,14,16.80
2011,07,07,17,15,12.70
2011,07,07,17,16,17.80
2011,07,07,17,17,13.90
2011,07,07,17,18,15.30
2011,07,07,17,19,17.80
2011,07,07,17,20,15.60
2011,07,07,17,21,17.00
2011,07,07,17,22,18.40
2011,07,07,17,23,22.50
2011,07,07,17,24,16.80
2011,07,07,17,25,13.90
2011,07,07,17,26,16.80
2011,07,07,17,27,16.50
2011,07,07,17,28,22.40
2011,07,07,17,29,17.90
2011,07,07,17,30,11.20
2011,07,07,17,31,13.10
2011,07,07,17,32,11.10
2011,07,07,17,33,18.90
2011,07,07,17,34,22.00
2011,07,07,17,35,21.50
2011,07,07,17,36,15.70
2011,07,07,17,37,19.80
2011,07,07,17,38,15.50
2011,07,07,17,39,20.20
2011,07,07,17,40,14.70
2011,07,07,17,41,15.70
2011,07,07,17,42,20.60
2011,07,07,17,43,15.70
2011,07,07,17,44,13.50
2011,07,07,17,45,19.10
2011,07,07,17,46,15.20
2011,07,07,17,47,21.50
2011,07,07,17,48,24.80
2011,07,07,17,49,11.30
2011,07,07,17,50,23.90
2011,07,07,17,51,19.40
2011,07,07,17,52,18.80
2011,07,07,17,53,26.40
2011,07,07,17,54,16.40